Location: Stanford
(52.2833°N, 2.4333°W)
Time: 02:02:41
(UTC+00:00)

APEX - Pass Details

Date: 22 January 2021
Orbit: 331 x 1088 km, 69.9° (Epoch: 28 February)

Event Time Altitude Azimuth Distance (km) Brightness Sun altitude
Rises 18:23:55 0° 207° (SSW) 3,878 8.2 -15.7°
Reaches altitude 10° 18:26:41 10° 206° (SSW) 2,895 7.5 -16.1°
Maximum altitude 18:33:36 82° 121° (ESE) 1,001 4.5 -17.1°
Enters shadow 18:38:28 17° 35° (NE) 2,126 5.9 -17.9°
